DW9408 Weather Reports


Display with metric or nautical units.
time (UTC)temp
F
wind
direction
speed
MPH
gust
MPH
rain 1hr
in
rain 24hr
in
rain mn
in
humidity
%
barometer
mb
20260505050714 47 232 0.0 0.0 0.00 0.00 0.00 91 1014.6
20260505041433 49 232 0.0 0.0 0.00 0.00 0.00 89 1014.6
20260505040931 49 232 0.0 0.0 0.00 0.00 0.00 88 1014.6
20260505040431 49 232 0.0 0.0 0.00 0.00 0.00 88 1014.6
20260505035930 49 232 0.0 0.0 0.00 0.00 0.00 88 1014.7
20260505035429 49 232 0.0 0.0 0.00 0.00 0.00 88 1014.7
20260505034930 49 232 0.0 0.0 0.00 0.00 0.00 87 1014.7
20260505033930 50 232 0.0 0.0 0.00 0.00 0.00 87 1014.7
20260505033430 50 232 0.0 0.0 0.00 0.00 0.00 86 1014.8
20260505032429 51 232 0.0 0.0 0.00 0.00 0.00 85 1014.7
20260505031930 51 232 0.0 0.0 0.00 0.00 0.00 84 1014.6
20260505031429 51 232 0.0 0.0 0.00 0.00 0.00 84 1014.6
20260505030931 51 232 0.0 0.0 0.00 0.00 0.00 83 1014.6
20260505030700 52 232 0.0 0.0 0.00 0.00 0.00 82 1014.5
20260505025928 52 232 0.0 0.0 0.00 0.00 0.00 82 1014.5
20260505025428 52 232 0.0 0.0 0.00 0.00 0.00 82 1014.5
20260505024927 53 232 0.0 0.0 0.00 0.00 0.00 82 1014.5
20260505024424 53 232 0.0 0.0 0.00 0.00 0.00 80 1014.5
20260505023923 53 232 0.0 0.0 0.00 0.00 0.00 80 1014.6
20260505023655 53 232 0.0 0.0 0.00 0.00 0.00 80 1014.5
20260505022923 54 232 0.0 0.0 0.00 0.00 0.00 80 1014.5
20260505022421 54 232 0.0 0.0 0.00 0.00 0.00 79 1014.4
20260505021923 54 232 0.0 0.0 0.00 0.00 0.00 78 1014.3
20260505021419 55 232 0.0 0.0 0.00 0.00 0.00 78 1014.3
20260505020919 55 232 0.0 0.0 0.00 0.00 0.00 76 1014.3
20260505020416 55 232 0.0 0.0 0.00 0.00 0.00 76 1014.3
20260505015913 56 232 0.0 0.0 0.00 0.00 0.00 75 1014.2
20260505015415 56 232 0.0 0.0 0.00 0.00 0.00 75 1014.1
20260505014914 56 232 0.0 0.0 0.00 0.00 0.00 74 1014.1
20260505014413 57 232 0.0 0.0 0.00 0.00 0.00 73 1014.0
20260505013913 57 232 0.0 0.0 0.00 0.00 0.00 72 1014.0
20260505013413 58 232 0.0 0.0 0.00 0.00 0.00 71 1013.9
20260505012414 59 232 0.0 0.0 0.00 0.00 0.00 69 1013.8
20260505011908 60 232 0.0 0.0 0.00 0.00 0.00 67 1013.9
20260505011634 61 232 0.0 0.0 0.00 0.00 0.00 65 1013.8
20260505010856 62 232 0.0 0.0 0.00 0.00 0.00 64 1013.7
20260505010350 63 232 0.0 0.0 0.00 0.00 0.00 62 1013.7
20260505005844 64 232 0.0 0.0 0.00 0.00 0.00 59 1013.7
20260505005338 64 232 0.0 0.0 0.00 0.00 0.00 57 1013.7
20260505004832 65 232 0.0 0.0 0.00 0.00 0.00 55 1013.6
20260505004326 65 232 0.0 0.0 0.00 0.00 0.00 54 1013.6
20260505003820 66 232 0.0 0.0 0.00 0.00 0.00 53 1013.5
20260505003545 67 232 0.0 0.0 0.00 0.00 0.00 52 1013.4
20260505003038 68 232 0.0 0.0 0.00 0.00 0.00 51 1013.4
20260505002303 69 232 0.0 0.0 0.00 0.00 0.00 49 1013.4
20260505002028 70 232 0.0 0.0 0.00 0.00 0.00 47 1013.3
20260505001249 71 232 0.0 0.0 0.00 0.00 0.00 46 1013.2
20260505000744 71 232 0.0 3.0 0.00 0.00 0.00 42 1013.2
20260505000508 72 232 0.0 4.0 0.00 0.00 0.00 42 1013.2
20260504235737 72 225 0.0 4.0 0.00 0.00 0.00 41 1013.2
20260504235458 72 237 1.0 4.0 0.00 0.00 0.00 40 1013.0
20260504234720 73 216 1.0 10.0 0.00 0.00 0.00 40 1013.0
20260504234213 73 200 0.0 10.0 0.00 0.00 0.00 39 1012.9
20260504233707 74 232 1.0 4.0 0.00 0.00 0.00 41 1012.9
20260504233432 74 194 1.0 7.0 0.00 0.00 0.00 39 1012.8
20260504232655 74 223 1.0 7.0 0.00 0.00 0.00 39 1012.8
20260504232150 75 204 2.0 11.0 0.00 0.00 0.00 38 1012.8
20260504231644 75 203 2.0 11.0 0.00 0.00 0.00 38 1012.8
20260504231139 75 188 2.0 8.0 0.00 0.00 0.00 38 1012.7
20260504230631 75 237 2.0 7.0 0.00 0.00 0.00 38 1012.7
20260504230126 75 210 2.0 10.0 0.00 0.00 0.00 39 1012.7
20260504225620 76 214 3.0 10.0 0.00 0.00 0.00 38 1012.7
20260504225114 76 195 2.0 9.0 0.00 0.00 0.00 41 1012.7
20260504224608 76 206 1.0 8.0 0.00 0.00 0.00 41 1012.7
20260504224334 76 196 1.0 9.0 0.00 0.00 0.00 39 1012.7
20260504223555 76 209 2.0 11.0 0.00 0.00 0.00 39 1012.8
20260504223050 76 206 4.0 11.0 0.00 0.00 0.00 36 1012.8
20260504222543 76 214 3.0 11.0 0.00 0.00 0.00 37 1012.8
20260504222038 76 156 3.0 12.0 0.00 0.00 0.00 37 1012.9
20260504221532 76 227 4.0 12.0 0.00 0.00 0.00 38 1012.9
20260504221026 76 223 3.0 11.0 0.00 0.00 0.00 37 1012.9
20260504220520 76 197 3.0 9.0 0.00 0.00 0.00 36 1012.9
20260504220014 76 208 3.0 13.0 0.00 0.00 0.00 37 1012.8
20260504215513 76 198 3.0 13.0 0.00 0.00 0.00 37 1012.8
20260504215014 77 215 2.0 8.0 0.00 0.00 0.00 38 1012.8
20260504214512 77 236 2.0 9.0 0.00 0.00 0.00 38 1012.8
20260504214011 77 202 1.0 10.0 0.00 0.00 0.00 39 1012.8
20260504213511 77 184 1.0 10.0 0.00 0.00 0.00 40 1012.8
20260504213012 77 202 3.0 10.0 0.00 0.00 0.00 39 1012.8
20260504212508 77 207 3.0 10.0 0.00 0.00 0.00 36 1012.8
20260504212008 77 213 2.0 9.0 0.00 0.00 0.00 39 1012.9
20260504211509 77 190 2.0 9.0 0.00 0.00 0.00 36 1012.9
20260504211008 77 215 3.0 12.0 0.00 0.00 0.00 36 1012.9
20260504210509 76 231 3.0 12.0 0.00 0.00 0.00 35 1013.0
20260504210008 77 232 3.0 11.0 0.00 0.00 0.00 36 1013.0
20260504205509 77 236 3.0 8.0 0.00 0.00 0.00 34 1013.1
20260504205009 77 217 2.0 10.0 0.00 0.00 0.00 36 1013.1
20260504204505 76 176 1.0 10.0 0.00 0.00 0.00 38 1013.1
20260504204006 76 181 2.0 9.0 0.00 0.00 0.00 35 1013.1
20260504203506 76 186 3.0 9.0 0.00 0.00 0.00 35 1013.2
20260504203236 76 198 3.0 9.0 0.00 0.00 0.00 33 1013.2
20260504202506 76 223 1.0 8.0 0.00 0.00 0.00 38 1013.2
20260504202237 76 155 1.0 6.0 0.00 0.00 0.00 35 1013.2
20260504201505 76 178 2.0 6.0 0.00 0.00 0.00 37 1013.3
20260504201004 76 173 2.0 6.0 0.00 0.00 0.00 35 1013.4
20260504200506 76 193 1.0 6.0 0.00 0.00 0.00 33 1013.5
20260504200233 76 159 2.0 10.0 0.00 0.00 0.00 34 1013.5
20260504195501 77 207 3.0 10.0 0.00 0.00 0.00 36 1013.6
20260504195233 77 183 3.0 7.0 0.00 0.00 0.00 33 1013.7
20260504194501 77 225 3.0 12.0 0.00 0.00 0.00 35 1013.6
20260504194233 77 184 2.0 12.0 0.00 0.00 0.00 35 1013.6
20260504193502 77 190 3.0 10.0 0.00 0.00 0.00 36 1013.7
20260504193001 77 223 3.0 15.0 0.00 0.00 0.00 38 1013.8
20260504192500 77 238 1.0 15.0 0.00 0.00 0.00 35 1013.9
20260504192000 77 156 3.0 13.0 0.00 0.00 0.00 35 1013.9
20260504191507 77 163 4.0 13.0 0.00 0.00 0.00 38 1014.0
20260504191001 77 196 3.0 11.0 0.00 0.00 0.00 38 1014.1
20260504185949 78 161 2.0 7.0 0.00 0.00 0.00 38 1014.2
20260504185443 78 259 1.0 4.0 0.00 0.00 0.00 37 1014.1
20260504184938 77 148 1.0 6.0 0.00 0.00 0.00 36 1014.2
20260504184702 77 137 2.0 7.0 0.00 0.00 0.00 36 1014.3
20260504183925 77 217 1.0 7.0 0.00 0.00 0.00 36 1014.3
20260504183425 77 112 1.0 7.0 0.00 0.00 0.00 36 1014.3
20260504183145 77 179 1.0 7.0 0.00 0.00 0.00 41 1014.3
20260504182407 77 163 1.0 6.0 0.00 0.00 0.00 38 1014.4
20260504181356 76 159 1.0 7.0 0.00 0.00 0.00 37 1014.4
20260504180850 76 88 1.0 9.0 0.00 0.00 0.00 35 1014.5
20260504180344 76 139 1.0 9.0 0.00 0.00 0.00 36 1014.6
20260504175837 76 177 1.0 4.0 0.00 0.00 0.00 37 1014.7
20260504175331 76 153 0.0 3.0 0.00 0.00 0.00 35 1014.8
20260504174825 76 150 2.0 6.0 0.00 0.00 0.00 35 1014.9
20260504174319 75 156 3.0 7.0 0.00 0.00 0.00 35 1014.9
20260504173819 75 277 2.0 8.0 0.00 0.00 0.00 36 1015.0
20260504173307 75 191 1.0 8.0 0.00 0.00 0.00 37 1015.0
20260504172801 75 246 2.0 6.0 0.00 0.00 0.00 39 1015.1
20260504172255 74 240 2.0 5.0 0.00 0.00 0.00 44 1015.1
20260504171750 74 198 3.0 7.0 0.00 0.00 0.00 43 1015.1
20260504171244 74 199 3.0 7.0 0.00 0.00 0.00 43 1015.1
20260504171008 73 184 3.0 8.0 0.00 0.00 0.00 41 1015.1
20260504170232 74 209 3.0 8.0 0.00 0.00 0.00 40 1015.3
20260504160121 71 265 0.0 6.0 0.00 0.00 0.00 46 1016.3
20260504151019 68 190 0.0 5.0 0.00 0.00 0.00 56 1016.8
20260504150748 67 213 1.0 7.0 0.00 0.00 0.00 56 1017.0
20260504141001 64 302 0.0 0.0 0.00 0.00 0.00 64 1017.1
20260504140501 64 302 0.0 0.0 0.00 0.00 0.00 60 1017.0
20260504110336 36 190 0.0 0.0 0.00 0.00 0.00 98 1016.9
20260504100456 37 190 0.0 0.0 0.00 0.00 0.00 97 1016.4
20260504090112 37 190 0.0 0.0 0.00 0.00 0.00 97 1016.7
20260504081244 38 190 0.0 0.0 0.00 0.00 0.00 97 1016.1
20260504080506 38 190 0.0 0.0 0.00 0.00 0.00 97 1016.0
20260504070213 40 190 0.0 0.0 0.00 0.00 0.00 96 1016.2
20260504060202 41 190 0.0 0.0 0.00 0.00 0.00 96 1016.3